Location: Domicella
(40.8833°N, 14.5833°E)
Time: 08:19:14
(UTC+00:00)

Cosmos 1092 Rocket - Pass Details

Date: 15 May 2026
Orbit: 953 x 994 km, 83.0° (Epoch: 5 June)

Event Time Altitude Azimuth Distance (km) Brightness Sun altitude
Rises 21:36:03 0° 351° (N) 3,647 8.2 -27.1°
Reaches altitude 10° 21:38:32 10° 351° (N) 2,701 7.3 -27.3°
Maximum altitude 21:44:44 82° 264° (W) 980 3.9 -27.7°
Enters shadow 21:45:21 72° 201° (SSW) 1,013 3.8 -27.7°
